When you browse on this site, cookies collect data to enhance your experience and personalize the content and advertising you see.
Visit our Privacy Policy to learn more. By continuing to use the site, you agree to this use of cookies and data.
  • In Hungary
  • List of Countries
  • For 7 days
  • Water Temperature
  • Weather Map
  • News
  • Weather Widgets
  • user-avatar
    Login

    Hourly Weather Tartar

    Today, 5 April, Sunday

    Time Temperature Precipitation Wind Pressure Humidity
    00:00 +9°C° 0 mm 1 mps 745 mmHg 86%
    01:00 +9°C° 0 mm 1 mps 745 mmHg 86%
    02:00 +9°C° 0 mm 1 mps 744 mmHg 85%
    03:00 +9°C° 0 mm 1 mps 744 mmHg 85%
    04:00 +8°C° 0 mm 1 mps 744 mmHg 85%
    05:00 +7°C° 0 mm 0 mps 745 mmHg 85%
    06:00 +7°C° 0 mm 0 mps 745 mmHg 86%
    07:00 +10°C° 0 mm 1 mps 745 mmHg 81%
    08:00 +11°C° 0 mm 1 mps 744 mmHg 76%
    09:00 +13°C° 0 mm 2 mps 744 mmHg 71%
    10:00 +14°C° 0 mm 1 mps 744 mmHg 67%
    11:00 +16°C° 0 mm 1 mps 744 mmHg 64%
    12:00 +18°C° 0 mm 1 mps 744 mmHg 60%
    13:00 +18°C° 0 mm 1 mps 743 mmHg 58%
    14:00 +19°C° 0 mm 1 mps 742 mmHg 56%
    15:00 +20°C° 0 mm 1 mps 741 mmHg 53%
    16:00 +19°C° 0 mm 1 mps 741 mmHg 57%
    17:00 +18°C° 0 mm 1 mps 741 mmHg 61%
    18:00 +18°C° 0 mm 1 mps 741 mmHg 65%
    19:00 +16°C° 0 mm 1 mps 741 mmHg 67%
    20:00 +15°C° 0 mm 1 mps 741 mmHg 69%
    21:00 +15°C° 0 mm 1 mps 741 mmHg 71%
    22:00 +14°C° 0 mm 1 mps 741 mmHg 73%
    23:00 +14°C° 0 mm 1 mps 741 mmHg 74%

    Tomorrow, 6 April, Monday

    Time Temperature Precipitation Wind Pressure Humidity
    00:00 +13°C° 0 mm 1 mps 741 mmHg 76%
    01:00 +13°C° 0 mm 1 mps 740 mmHg 78%
    02:00 +12°C° 0 mm 1 mps 740 mmHg 80%
    03:00 +11°C° 0 mm 1 mps 740 mmHg 83%
    04:00 +11°C° 0 mm 1 mps 740 mmHg 82%
    05:00 +10°C° 0 mm 0 mps 740 mmHg 82%
    06:00 +10°C° 0 mm 0 mps 740 mmHg 81%
    07:00 +13°C° 0 mm 1 mps 740 mmHg 77%
    08:00 +14°C° 0 mm 1 mps 740 mmHg 73%
    09:00 +15°C° 0 mm 1 mps 740 mmHg 68%
    10:00 +16°C° 0 mm 2 mps 740 mmHg 65%
    11:00 +18°C° 0 mm 2 mps 741 mmHg 62%
    12:00 +19°C° 0 mm 2 mps 741 mmHg 59%
    13:00 +19°C° 0 mm 2 mps 741 mmHg 59%
    14:00 +19°C° 0 mm 2 mps 741 mmHg 58%
    15:00 +19°C° 0 mm 2 mps 741 mmHg 58%
    16:00 +17°C° 0.3 mm 3 mps 741 mmHg 65%
    17:00 +15°C° 0.3 mm 5 mps 741 mmHg 72%
    18:00 +13°C° 0.3 mm 6 mps 741 mmHg 79%
    19:00 +11°C° 0.4 mm 7 mps 742 mmHg 79%
    20:00 +10°C° 0.4 mm 8 mps 742 mmHg 80%
    21:00 +7°C° 0.4 mm 8 mps 743 mmHg 80%
    22:00 +7°C° 0.5 mm 9 mps 743 mmHg 81%
    23:00 +6°C° 0.5 mm 9 mps 743 mmHg 83%

    Day after tomorrow, 7 April, Tuesday

    Time Temperature Precipitation Wind Pressure Humidity
    00:00 +5°C° 0.5 mm 10 mps 744 mmHg 84%
    01:00 +3°C° 0.5 mm 10 mps 744 mmHg 86%
    02:00 +3°C° 0.5 mm 10 mps 744 mmHg 88%
    03:00 +2°C° 0.5 mm 10 mps 744 mmHg 90%
    04:00 +1°C° 0.7 mm 10 mps 745 mmHg 91%
    05:00 +1°C° 0.7 mm 10 mps 745 mmHg 91%
    06:00 0°C° 0.7 mm 9 mps 746 mmHg 92%
    07:00 0°C° 0.4 mm 9 mps 746 mmHg 92%
    08:00 0°C° 0.4 mm 9 mps 746 mmHg 92%
    09:00 0°C° 0.4 mm 8 mps 746 mmHg 92%
    10:00 +2°C° 0.4 mm 7 mps 746 mmHg 92%
    11:00 +2°C° 0.4 mm 7 mps 746 mmHg 91%
    12:00 +2°C° 0.4 mm 6 mps 746 mmHg 91%
    13:00 +2°C° 0.3 mm 6 mps 746 mmHg 90%
    14:00 +2°C° 0.3 mm 5 mps 746 mmHg 90%
    15:00 +2°C° 0.3 mm 5 mps 746 mmHg 90%
    16:00 +2°C° 0.2 mm 5 mps 746 mmHg 90%
    17:00 +3°C° 0.2 mm 4 mps 747 mmHg 91%
    18:00 +3°C° 0.2 mm 4 mps 747 mmHg 91%
    19:00 +3°C° 0.1 mm 4 mps 748 mmHg 92%
    20:00 +1°C° 0.1 mm 4 mps 748 mmHg 93%
    21:00 +1°C° 0.1 mm 4 mps 749 mmHg 93%
    22:00 +1°C° 0.1 mm 5 mps 749 mmHg 93%
    23:00 +1°C° 0.1 mm 5 mps 750 mmHg 93%

    8 April, Wednesday

    Time Temperature Precipitation Wind Pressure Humidity
    00:00 +1°C° 0.1 mm 5 mps 750 mmHg 93%
    01:00 0°C° 0 mm 5 mps 750 mmHg 91%
    02:00 0°C° 0 mm 5 mps 751 mmHg 90%
    03:00 0°C° 0 mm 5 mps 751 mmHg 89%
    04:00 0°C° 0 mm 5 mps 751 mmHg 88%
    05:00 0°C° 0 mm 5 mps 752 mmHg 88%
    06:00 0°C° 0 mm 5 mps 752 mmHg 87%
    07:00 +1°C° 0 mm 5 mps 752 mmHg 82%
    08:00 +2°C° 0 mm 6 mps 752 mmHg 77%
    09:00 +3°C° 0 mm 6 mps 752 mmHg 72%
    10:00 +4°C° 0.1 mm 6 mps 751 mmHg 71%
    11:00 +5°C° 0.1 mm 5 mps 751 mmHg 70%
    12:00 +6°C° 0.1 mm 5 mps 750 mmHg 68%
    13:00 +6°C° 0.1 mm 5 mps 750 mmHg 70%
    14:00 +6°C° 0.1 mm 4 mps 749 mmHg 72%
    15:00 +6°C° 0.1 mm 4 mps 748 mmHg 73%
    16:00 +7°C° 0.1 mm 3 mps 748 mmHg 74%
    17:00 +7°C° 0.1 mm 3 mps 747 mmHg 74%
    18:00 +5°C° 0.1 mm 3 mps 747 mmHg 75%
    19:00 +5°C° 0 mm 3 mps 747 mmHg 76%
    20:00 +4°C° 0 mm 3 mps 747 mmHg 77%
    21:00 +4°C° 0 mm 3 mps 747 mmHg 78%
    22:00 +4°C° 0 mm 2 mps 747 mmHg 79%
    23:00 +4°C° 0 mm 2 mps 746 mmHg 79%

    9 April, Thursday

    Time Temperature Precipitation Wind Pressure Humidity
    00:00 +4°C° 0 mm 1 mps 746 mmHg 80%
    01:00 +4°C° 0 mm 1 mps 745 mmHg 80%
    02:00 +4°C° 0 mm 1 mps 745 mmHg 81%
    03:00 +3°C° 0 mm 1 mps 744 mmHg 81%
    04:00 +3°C° 0 mm 1 mps 744 mmHg 81%
    05:00 +3°C° 0 mm 1 mps 743 mmHg 81%
    06:00 +3°C° 0 mm 1 mps 743 mmHg 81%
    07:00 +5°C° 0 mm 1 mps 743 mmHg 76%
    08:00 +6°C° 0 mm 1 mps 742 mmHg 70%
    09:00 +6°C° 0 mm 2 mps 742 mmHg 65%
    10:00 +7°C° 0 mm 2 mps 741 mmHg 63%
    11:00 +8°C° 0 mm 2 mps 741 mmHg 60%
    12:00 +9°C° 0 mm 2 mps 740 mmHg 58%
    13:00 +10°C° 0 mm 1 mps 740 mmHg 57%
    14:00 +11°C° 0 mm 1 mps 739 mmHg 55%
    15:00 +11°C° 0 mm 1 mps 739 mmHg 54%
    16:00 +11°C° 0 mm 1 mps 739 mmHg 57%
    17:00 +10°C° 0 mm 1 mps 739 mmHg 59%
    18:00 +10°C° 0 mm 1 mps 739 mmHg 62%
    19:00 +8°C° 0 mm 2 mps 739 mmHg 67%
    20:00 +7°C° 0 mm 2 mps 740 mmHg 72%
    21:00 +7°C° 0 mm 2 mps 740 mmHg 77%
    22:00 +7°C° 0 mm 1 mps 740 mmHg 79%
    23:00 +7°C° 0 mm 1 mps 740 mmHg 82%

    10 April, Friday

    Time Temperature Precipitation Wind Pressure Humidity
    00:00 +6°C° 0 mm 1 mps 740 mmHg 84%
    01:00 +6°C° 0 mm 1 mps 739 mmHg 82%
    02:00 +6°C° 0 mm 1 mps 739 mmHg 81%
    03:00 +6°C° 0 mm 1 mps 738 mmHg 79%
    04:00 +7°C° 0 mm 1 mps 738 mmHg 80%
    05:00 +7°C° 0 mm 1 mps 738 mmHg 80%
    06:00 +7°C° 0 mm 1 mps 738 mmHg 80%
    07:00 +8°C° 0 mm 1 mps 738 mmHg 78%
    08:00 +8°C° 0 mm 1 mps 738 mmHg 75%
    09:00 +9°C° 0 mm 1 mps 738 mmHg 73%
    10:00 +9°C° 0.3 mm 1 mps 738 mmHg 74%
    11:00 +9°C° 0.3 mm 1 mps 738 mmHg 76%
    12:00 +10°C° 0.3 mm 1 mps 738 mmHg 77%
    13:00 +10°C° 0.1 mm 1 mps 737 mmHg 78%
    14:00 +9°C° 0.1 mm 2 mps 737 mmHg 80%
    15:00 +8°C° 0.1 mm 2 mps 737 mmHg 81%
    16:00 +8°C° 0 mm 2 mps 737 mmHg 83%
    17:00 +9°C° 0 mm 1 mps 737 mmHg 85%
    18:00 +9°C° 0 mm 1 mps 737 mmHg 88%
    19:00 +9°C° 0 mm 1 mps 738 mmHg 89%
    20:00 +9°C° 0 mm 1 mps 738 mmHg 89%
    21:00 +8°C° 0 mm 1 mps 738 mmHg 90%
    22:00 +8°C° 0 mm 1 mps 738 mmHg 90%
    23:00 +7°C° 0 mm 0 mps 738 mmHg 90%
    Show more